Find Kosmos-1758

NORAD ID: 16791 Int'l Des: 1986-046 Owner: GRU Country: SU operational
LEOCIRCULARPOLAR

現在のビュー

3D地球を読み込み中...

About Kosmos-1758

Kosmos-1758 (NORAD 16791) is a satellite launched Jun 12, 1986 by GRU of SU. It operates in LEO, CIRCULAR, POLAR orbit with a mass of 1750.00 kg.

次回通過

Passes for default location (London). Set your location on the main map for personalized predictions.

高度履歴

Loading altitude history...

軌道要素

1 16791U 86046A 26194.85645583 .00004043 00000-0 14983-3 0 9993
2 16791 82.4583 16.1972 0012271 246.1208 113.8745 15.27272659185311
Epoch: Jul 13, 2026 • Age: 11 hours

現在のステータス

高度 500.3 km
遠地点 / 近地点 N/A
速度 7.62 km/s
衛星直下点 -65.00°S, 174.03°E
打ち上げ日 Jun 12, 1986
運用期間 40 years
タイプ other

技術仕様

分類 Payload
質量 1750.00 kg
乾燥質量 1750.00 kg
総質量 1750.00 kg
長さ 3.20 m
直径 1.30 m
スパン 13.10 m
形状 Cyl + Ant
製造者 YUZH
バスタイプ Tselina-D
フェーズステータス In Orbit
所有者/国 GRU/SU

Most Searched